Terminal Aerodrome Forecast
Issued by NWS Milwaukee/Sullivan, WI

Home | Current Version | Previous Version | Text Only | Print | Product List | Glossary On
Versions: 1 2 3 4 5 6 7 8 9 10 11 12 13 14 15 16 17 18 19 20 21 22 23 24 25 26 27 28
000
FTUS43 KMKX 182320
TAFMSN
TAF
KMSN 182320Z 1900/1924 07003KT P6SM FEW070
     FM190400 11008KT P6SM FEW090
     FM191500 14013G19KT P6SM FEW090
     FM191900 17015G23KT P6SM SCT250=

USA.gov is the U.S. government's official web portal to all federal, state and local government web resources and services.